This is the latest recevied weather packets stored in our database for station/object OK1UOJ. If no packets are shown the sender has not sent any weather packets the latest 10 day(s).
| Time | Temp. | Humidity | Pressure | Rain* | Wind** | Luminosity | Snow |
|---|---|---|---|---|---|---|---|
| 1778064968 | 25° C | 58% | 1009 hPa | - | - | - | - |
| 1778064963 | 25° C | 58% | 1009 hPa | - | - | - | - |
| 1778064684 | 24.44° C | 63% | 1009 hPa | - | - | - | - |
| 1778064131 | 23.89° C | 72% | - | - | - | - | - |
| 1778064126 | 23.89° C | 72% | 1009.1 hPa | - | - | - | - |
| 1778063573 | 23.89° C | 73% | 1009.1 hPa | - | - | - | - |
| 1778063569 | 23.89° C | 73% | 1009.1 hPa | - | - | - | - |
| 1778063295 | 23.89° C | 71% | 1009.4 hPa | - | - | - | - |
| 1778063294 | 23.89° C | 71% | 1009.4 hPa | - | - | - | - |
| 1778063289 | 23.89° C | 71% | 1009.4 hPa | - | - | - | - |
| 1778063010 | 23.89° C | 83% | 1009.5 hPa | - | - | - | - |
| 1778062731 | 23.89° C | 66% | 1009.4 hPa | - | - | - | - |
| 1778061894 | 23.89° C | 80% | 1009.6 hPa | - | - | - | - |
| 1778061620 | 23.33° C | 80% | 1009.6 hPa | - | - | - | - |
| 1778061615 | 23.33° C | 80% | 1009.6 hPa | - | - | - | - |
| 1778061341 | 23.33° C | 85% | 1009.5 hPa | - | - | - | - |
| 1778061336 | 23.33° C | 85% | 1009.5 hPa | - | - | - | - |
| 1778061062 | 22.78° C | 84% | 1009.5 hPa | - | - | - | - |
| 1778061057 | 22.78° C | 84% | 1009.5 hPa | - | - | - | - |
| 1778060505 | 22.78° C | 84% | 1009.6 hPa | - | - | - | - |
| 1778059942 | 23.33° C | 84% | 1009.5 hPa | - | - | - | - |
| 1778059389 | 22.22° C | 10% | - | - | - | - | - |
| 1778059389 | 22.22° C | 10% | - | - | - | - | - |
| 1778059384 | 22.22° C | 10% | - | - | - | - | - |
| 1778059106 | 21.67° C | 94% | 1009.5 hPa | - | - | - | - |
* Rain since midnight (hover to see other rain measurements)
** Current wind speed in m/s (hover to see current wind gust speed)